FW3046 Weather Reports


Display with metric or nautical units.
time (UTC)temp
F
wind
direction
speed
MPH
gust
MPH
rain 1hr
in
rain 24hr
in
rain mn
in
humidity
%
barometer
mb
20260901193032 91 155 1.0 3.0 0.00 0.00 0.00 67 1015.1
20260901191550 90 155 1.0 4.0 0.00 0.00 0.00 68 1015.1
20260901190030 91 155 1.0 2.0 0.00 0.00 0.00 67 1014.9
20260901184526 90 155 0.0 3.0 0.00 0.00 0.00 68 1015.0
20260901183033 89 155 1.0 5.0 0.00 0.00 0.00 69 1015.1
20260901181525 88 155 1.0 4.0 0.00 0.00 0.00 72 1015.2
20260901180022 87 155 1.0 4.0 0.00 0.00 0.00 72 1015.3
20260901174521 87 156 0.0 5.0 0.00 0.00 0.00 72 1015.3
20260901173020 88 156 1.0 4.0 0.00 0.00 0.00 71 1015.5
20260901171519 89 156 1.0 4.0 0.00 0.00 0.00 70 1015.6
20260901170016 88 156 1.0 6.0 0.00 0.00 0.00 71 1015.7
20260901164515 88 156 0.0 4.0 0.00 0.00 0.00 72 1015.6
20260901163013 87 156 2.0 7.0 0.00 0.00 0.00 69 1015.7
20260901161523 87 156 0.0 3.0 0.00 0.00 0.00 72 1015.7
20260901160009 86 156 0.0 4.0 0.00 0.00 0.00 72 1015.5
20260901154511 86 156 1.0 6.0 0.00 0.00 0.00 74 1015.5
20260901153008 85 156 0.0 4.0 0.00 0.00 0.00 74 1015.5
20260901151516 86 156 1.0 5.0 0.00 0.00 0.00 73 1015.7
20260901150004 86 156 1.0 4.0 0.00 0.00 0.00 72 1015.5
20260901144503 86 156 1.0 6.0 0.00 0.00 0.00 73 1015.5
20260901143002 85 156 2.0 6.0 0.00 0.00 0.00 74 1015.5
20260901141612 84 156 0.0 4.0 0.00 0.00 0.00 78 1015.7
20260901140131 82 156 0.0 4.0 0.00 0.00 0.00 81 1015.5
20260901134551 80 156 0.0 2.0 0.00 0.00 0.00 83 1015.3
20260901133047 79 156 0.0 2.0 0.00 0.00 0.00 85 1015.5
20260901131546 78 156 0.0 2.0 0.00 0.00 0.00 86 1015.6
20260901130044 77 156 0.0 0.0 0.00 0.00 0.00 88 1015.7
20260901124539 76 156 0.0 2.0 0.00 0.00 0.00 88 1015.9
20260901123036 76 156 0.0 1.0 0.00 0.00 0.00 89 1016.1
20260901121533 0 0.0 0.0 0.00 0.00 0.00 1016.0
20260901120028 0 0.0 0.0 0.00 0.00 0.00 1016.0
20260901114530 0 0.0 0.0 0.00 0.00 0.00 1015.9
20260901113021 0 0.0 0.0 0.00 0.00 0.00 1015.8
20260901111518 0 0.0 0.0 0.00 0.00 0.00 1015.6
20260901110013 0 0.0 0.0 0.00 0.00 0.00 1015.5
20260901104507 0 0.0 0.0 0.00 0.00 0.00 1015.3
20260901103003 0 0.0 0.0 0.00 0.00 0.00 1015.4
20260901101607 0 0.0 0.0 0.00 0.00 0.00 1015.4
20260901100057 0 0.0 0.0 0.00 0.00 0.00 1015.4
20260901094551 0 0.0 0.0 0.00 0.00 0.00 1015.3
20260901093045 0 150 0.0 0.0 0.00 0.00 0.00 1015.2
20260901091552 73 156 0.0 0.0 0.00 0.00 0.00 90 1015.3
20260901090037 73 156 0.0 0.0 0.00 0.00 0.00 90 1015.3
20260901084538 73 156 0.0 0.0 0.00 0.00 0.00 90 1015.2
20260901083038 73 156 0.0 1.0 0.00 0.00 0.00 90 1015.2
20260901081521 73 156 0.0 1.0 0.00 0.00 0.00 90 1015.3
20260901080044 73 156 0.0 0.0 0.00 0.00 0.00 91 1015.4
20260901074514 72 156 0.0 0.0 0.00 0.00 0.00 91 1015.3
20260901073012 72 156 0.0 0.0 0.00 0.00 0.00 92 1015.4
20260901071507 71 156 0.0 0.0 0.00 0.00 0.00 92 1015.3
20260901070003 71 156 0.0 0.0 0.00 0.00 0.00 93 1015.4
20260901064608 71 156 0.0 0.0 0.00 0.00 0.00 93 1015.4
20260901063100 71 156 0.0 0.0 0.00 0.00 0.00 93 1015.6
20260901061602 71 156 0.0 0.0 0.00 0.00 0.00 93 1015.5
20260901060043 71 156 0.0 0.0 0.00 0.00 0.00 93 1015.7
20260901054543 71 156 0.0 0.0 0.00 0.00 0.00 93 1015.9
20260901053039 71 156 0.0 0.0 0.00 0.00 0.00 93 1016.0
20260901051530 71 156 0.0 0.0 0.00 0.00 0.00 93 1016.1
20260901050026 71 156 0.0 0.0 0.00 0.00 0.00 93 1016.1
20260901044521 71 156 0.0 0.0 0.00 0.00 0.00 93 1016.1
20260901043026 71 156 0.0 0.0 0.00 0.00 0.00 93 1016.0
20260901041516 71 156 0.0 0.0 0.00 0.00 0.00 93 1016.1
20260901040011 71 156 0.0 0.0 0.00 0.00 0.00 93 1016.2
20260901034509 71 156 0.0 0.0 0.00 0.00 0.00 93 1016.2
20260901033013 71 156 0.0 0.0 0.00 0.00 0.00 93 1016.0
20260901031509 72 156 0.0 0.0 0.00 0.00 0.00 92 1016.1
20260901030009 72 156 0.0 0.0 0.00 0.01 0.00 92 1015.8
20260901024507 72 156 0.0 0.0 0.00 0.01 0.00 92 1015.7
20260901023007 73 156 0.0 0.0 0.00 0.01 0.00 92 1016.1
20260901021507 74 156 0.0 0.0 0.00 0.01 0.00 91 1016.4
20260901020011 74 156 0.0 0.0 0.00 0.01 0.00 91 1016.2
20260901014505 74 156 0.0 0.0 0.00 0.01 0.00 91 1016.2
20260901013007 74 156 0.0 0.0 0.00 0.01 0.00 90 1016.2
20260901011504 75 156 0.0 0.0 0.00 0.01 0.00 89 1015.8
20260901010003 75 156 0.0 0.0 0.00 0.01 0.00 89 1015.5
20260901004501 76 156 0.0 0.0 0.00 0.01 0.00 87 1016.0
20260901003059 76 156 0.0 0.0 0.00 0.01 0.00 85 1016.2
20260901001605 77 156 0.0 0.0 0.00 0.01 0.00 84 1016.3
20260901000057 78 156 0.0 0.0 0.00 0.01 0.00 82 1016.3
20260831234559 78 156 0.0 0.0 0.00 0.01 0.00 80 1016.4
20260831233057 80 156 0.0 0.0 0.00 0.01 0.00 77 1016.4
20260831231609 81 156 0.0 0.0 0.00 0.01 0.00 75 1016.4
20260831230100 82 156 0.0 0.0 0.00 0.01 0.00 71 1016.5
20260831224627 83 156 0.0 0.0 0.00 0.01 0.00 71 1016.5
20260831223054 84 156 0.0 0.0 0.00 0.01 0.00 69 1016.5
20260831221603 85 156 0.0 0.0 0.00 0.01 0.00 66 1016.5
20260831220055 85 156 0.0 0.0 0.00 0.01 0.00 66 1016.4
20260831214552 86 156 0.0 1.0 0.00 0.01 0.00 60 1016.6
20260831213052 87 156 0.0 2.0 0.00 0.01 0.00 59 1016.6
20260831211605 88 156 2.0 5.0 0.00 0.01 0.00 59 1016.7
20260831210058 88 156 0.0 2.0 0.00 0.01 0.00 65 1016.8
20260831204550 88 156 0.0 3.0 0.00 0.01 0.00 65 1016.6
20260831203050 86 156 0.0 0.0 0.00 0.01 0.00 75 1016.4
20260831201548 85 156 0.0 0.0 0.00 0.01 0.00 74 1016.5
20260831200047 85 156 0.0 0.0 0.00 0.01 0.00 73 1016.3
20260831194555 85 156 0.0 1.0 0.00 0.01 0.00 69 1016.7